Hourly Weather Rudaki

Today, 1 August, Sunday

Time Temperature Precipitation Wind Pressure Humidity
00:00 +17°C° 0 mm 2 mps 742 mmHg 77%
01:00 +17°C° 0 mm 2 mps 742 mmHg 81%
02:00 +17°C° 0 mm 3 mps 742 mmHg 86%
03:00 +17°C° 0.1 mm 2 mps 741 mmHg 90%
04:00 +17°C° 0.1 mm 2 mps 741 mmHg 93%
05:00 +17°C° 0.1 mm 2 mps 741 mmHg 96%
06:00 +18°C° 0 mm 2 mps 741 mmHg 89%
07:00 +20°C° 0 mm 3 mps 742 mmHg 81%
08:00 +21°C° 0 mm 3 mps 742 mmHg 74%
09:00 +22°C° 0.1 mm 4 mps 742 mmHg 63%
10:00 +25°C° 0.1 mm 5 mps 742 mmHg 52%
11:00 +27°C° 0.1 mm 6 mps 742 mmHg 41%
12:00 +27°C° 0 mm 6 mps 743 mmHg 40%
13:00 +27°C° 0 mm 6 mps 743 mmHg 38%
14:00 +27°C° 0 mm 6 mps 743 mmHg 37%
15:00 +27°C° 0 mm 5 mps 743 mmHg 40%
16:00 +26°C° 0 mm 5 mps 743 mmHg 42%
17:00 +26°C° 0 mm 4 mps 743 mmHg 44%
18:00 +24°C° 0 mm 3 mps 743 mmHg 51%
19:00 +21°C° 0 mm 2 mps 743 mmHg 58%
20:00 +21°C° 0 mm 1 mps 743 mmHg 66%
21:00 +20°C° 0 mm 1 mps 743 mmHg 67%
22:00 +20°C° 0 mm 1 mps 743 mmHg 68%
23:00 +19°C° 0 mm 1 mps 743 mmHg 70%

Tomorrow, 2 August, Monday

Time Temperature Precipitation Wind Pressure Humidity
00:00 +19°C° 0.1 mm 1 mps 742 mmHg 74%
01:00 +17°C° 0.1 mm 2 mps 742 mmHg 78%
02:00 +17°C° 0.1 mm 2 mps 742 mmHg 82%
03:00 +17°C° 0.2 mm 2 mps 741 mmHg 85%
04:00 +16°C° 0.2 mm 2 mps 740 mmHg 88%
05:00 +16°C° 0.2 mm 3 mps 740 mmHg 91%
06:00 +16°C° 2.3 mm 3 mps 739 mmHg 93%
07:00 +16°C° 2.3 mm 3 mps 738 mmHg 95%
08:00 +16°C° 2.3 mm 3 mps 738 mmHg 97%
09:00 +16°C° 1.9 mm 3 mps 737 mmHg 97%
10:00 +17°C° 1.9 mm 3 mps 737 mmHg 97%
11:00 +17°C° 1.9 mm 4 mps 737 mmHg 96%
12:00 +17°C° 0.2 mm 4 mps 737 mmHg 95%
13:00 +17°C° 0.2 mm 4 mps 738 mmHg 94%
14:00 +17°C° 0.2 mm 4 mps 738 mmHg 94%
15:00 +15°C° 0.5 mm 4 mps 738 mmHg 94%
16:00 +15°C° 0.5 mm 4 mps 739 mmHg 95%
17:00 +15°C° 0.5 mm 5 mps 739 mmHg 95%
18:00 +15°C° 0 mm 4 mps 740 mmHg 95%
19:00 +15°C° 0 mm 4 mps 740 mmHg 95%
20:00 +16°C° 0 mm 3 mps 740 mmHg 95%
21:00 +16°C° 0 mm 3 mps 741 mmHg 95%
22:00 +14°C° 0 mm 4 mps 741 mmHg 95%
23:00 +14°C° 0 mm 4 mps 741 mmHg 94%

Day after tomorrow, 3 August, Tuesday

Time Temperature Precipitation Wind Pressure Humidity
00:00 +14°C° 0 mm 4 mps 742 mmHg 95%
01:00 +13°C° 0 mm 4 mps 742 mmHg 95%
02:00 +12°C° 0 mm 4 mps 742 mmHg 96%
03:00 +12°C° 0 mm 3 mps 742 mmHg 96%
04:00 +12°C° 0 mm 3 mps 742 mmHg 96%
05:00 +11°C° 0 mm 3 mps 743 mmHg 96%
06:00 +13°C° 0 mm 4 mps 743 mmHg 91%
07:00 +14°C° 0 mm 4 mps 743 mmHg 86%
08:00 +16°C° 0 mm 5 mps 743 mmHg 80%
09:00 +17°C° 0.2 mm 5 mps 744 mmHg 75%
10:00 +19°C° 0.2 mm 5 mps 744 mmHg 69%
11:00 +20°C° 0.2 mm 5 mps 744 mmHg 63%
12:00 +20°C° 0.2 mm 5 mps 744 mmHg 62%
13:00 +21°C° 0.2 mm 5 mps 744 mmHg 61%
14:00 +21°C° 0.2 mm 5 mps 744 mmHg 60%
15:00 +21°C° 0.2 mm 5 mps 744 mmHg 63%
16:00 +21°C° 0.2 mm 4 mps 745 mmHg 65%
17:00 +21°C° 0.2 mm 4 mps 745 mmHg 67%
18:00 +19°C° 0.4 mm 3 mps 745 mmHg 75%
19:00 +17°C° 0.4 mm 3 mps 745 mmHg 83%
20:00 +16°C° 0.4 mm 2 mps 746 mmHg 91%
21:00 +15°C° 0 mm 2 mps 746 mmHg 92%
22:00 +14°C° 0 mm 2 mps 746 mmHg 92%
23:00 +13°C° 0 mm 2 mps 747 mmHg 93%

4 August, Wednesday

Time Temperature Precipitation Wind Pressure Humidity
00:00 +13°C° 0 mm 2 mps 747 mmHg 93%
01:00 +12°C° 0 mm 2 mps 747 mmHg 93%
02:00 +12°C° 0 mm 2 mps 748 mmHg 94%
03:00 +12°C° 0 mm 2 mps 748 mmHg 93%
04:00 +11°C° 0 mm 1 mps 748 mmHg 93%
05:00 +11°C° 0 mm 1 mps 749 mmHg 93%
06:00 +13°C° 0 mm 1 mps 749 mmHg 87%
07:00 +13°C° 0 mm 0 mps 749 mmHg 81%
08:00 +15°C° 0 mm 0 mps 750 mmHg 75%
09:00 +17°C° 0 mm 0 mps 750 mmHg 66%
10:00 +20°C° 0 mm 1 mps 750 mmHg 56%
11:00 +22°C° 0 mm 1 mps 750 mmHg 46%
12:00 +23°C° 0 mm 1 mps 750 mmHg 45%
13:00 +23°C° 0 mm 1 mps 750 mmHg 43%
14:00 +24°C° 0 mm 2 mps 750 mmHg 42%
15:00 +24°C° 0 mm 2 mps 749 mmHg 44%
16:00 +24°C° 0 mm 2 mps 749 mmHg 46%
17:00 +23°C° 0 mm 2 mps 749 mmHg 48%
18:00 +22°C° 0 mm 1 mps 749 mmHg 54%
19:00 +20°C° 0 mm 1 mps 749 mmHg 60%
20:00 +19°C° 0 mm 1 mps 749 mmHg 66%
21:00 +18°C° 0 mm 1 mps 749 mmHg 70%
22:00 +16°C° 0 mm 1 mps 749 mmHg 73%
23:00 +15°C° 0 mm 1 mps 749 mmHg 76%

5 August, Thursday

Time Temperature Precipitation Wind Pressure Humidity
00:00 +15°C° 0.2 mm 1 mps 749 mmHg 79%
01:00 +15°C° 0.2 mm 1 mps 749 mmHg 81%
02:00 +15°C° 0.2 mm 1 mps 749 mmHg 83%
03:00 +15°C° 0.7 mm 1 mps 749 mmHg 87%
04:00 +15°C° 0.7 mm 2 mps 749 mmHg 91%
05:00 +14°C° 0.7 mm 2 mps 749 mmHg 94%
06:00 +15°C° 0.5 mm 2 mps 749 mmHg 92%
07:00 +15°C° 0.5 mm 2 mps 749 mmHg 90%
08:00 +16°C° 0.5 mm 2 mps 749 mmHg 88%
09:00 +17°C° 0.1 mm 2 mps 748 mmHg 82%
10:00 +18°C° 0.1 mm 2 mps 748 mmHg 76%
11:00 +19°C° 0.1 mm 2 mps 748 mmHg 70%
12:00 +20°C° 0.3 mm 2 mps 748 mmHg 70%
13:00 +20°C° 0.3 mm 2 mps 748 mmHg 69%
14:00 +21°C° 0.3 mm 2 mps 748 mmHg 68%
15:00 +21°C° 0.4 mm 2 mps 747 mmHg 70%
16:00 +21°C° 0.4 mm 2 mps 747 mmHg 71%
17:00 +21°C° 0.4 mm 2 mps 747 mmHg 72%
18:00 +19°C° 0.1 mm 2 mps 747 mmHg 78%
19:00 +18°C° 0.1 mm 3 mps 747 mmHg 83%
20:00 +17°C° 0.1 mm 3 mps 747 mmHg 89%
21:00 +16°C° 0 mm 2 mps 747 mmHg 91%
22:00 +15°C° 0 mm 2 mps 747 mmHg 94%
23:00 +14°C° 0 mm 2 mps 747 mmHg 97%

6 August, Friday

Time Temperature Precipitation Wind Pressure Humidity
00:00 +14°C° 0 mm 2 mps 746 mmHg 97%
01:00 +14°C° 0 mm 2 mps 746 mmHg 97%
02:00 +14°C° 0 mm 2 mps 746 mmHg 97%
03:00 +14°C° 0 mm 2 mps 746 mmHg 97%
04:00 +15°C° 0 mm 2 mps 745 mmHg 97%
05:00 +15°C° 0 mm 2 mps 745 mmHg 97%
06:00 +14°C° 0.2 mm 3 mps 745 mmHg 97%
07:00 +16°C° 0.2 mm 3 mps 745 mmHg 96%
08:00 +16°C° 0.2 mm 3 mps 744 mmHg 96%
09:00 +16°C° 0.1 mm 3 mps 744 mmHg 96%
10:00 +17°C° 0.1 mm 3 mps 744 mmHg 96%
11:00 +17°C° 0.1 mm 3 mps 744 mmHg 96%
12:00 +17°C° 0.1 mm 3 mps 744 mmHg 95%
13:00 +18°C° 0.1 mm 3 mps 744 mmHg 93%
14:00 +18°C° 0.1 mm 3 mps 744 mmHg 91%
15:00 +18°C° 0.1 mm 3 mps 744 mmHg 90%
16:00 +18°C° 0.1 mm 4 mps 744 mmHg 89%
17:00 +18°C° 0.1 mm 4 mps 744 mmHg 88%
18:00 +18°C° 0 mm 4 mps 743 mmHg 91%
19:00 +17°C° 0 mm 3 mps 743 mmHg 93%
20:00 +16°C° 0 mm 3 mps 743 mmHg 95%
21:00 +16°C° 1.6 mm 3 mps 743 mmHg 96%
22:00 +16°C° 1.6 mm 3 mps 742 mmHg 97%
23:00 +16°C° 1.6 mm 3 mps 742 mmHg 98%
Show more

We Need Your Consent

Meteoprog and our Service Providers may store and access personal data such as cookies, device identifiers or other similar technologies on your device and process such data to personalise content and ads, as well as provide social media features and to analyse the traffic.

  • Store and/or access information on your device

    Cookies, device identifiers or other information can be stored or accessed on your device for the purposes indicated above.

  • Personalised ads and content, ad and content measurement, audience insights, and products development

    Ads and content can be personalised based on a profile. More data can be added to better personalise ads and content. Ad and content performance can be measured. Insights about the audience who saw the ads and content can be derived. Such data can be used to develop or improve user’s experience, systems and software.

By clicking ‘I Agree’ you will allow the use of indicated cookies, device identifiers, web beacons or other similar technologies. Your settings can be changed in the browser on your device.

For certain purposes, legitimate interests may be relied on, rather than consent. You can read more about this in our Privacy and Cookie Policy.